Phoenix, AZ

3:11 PM MST on April 26, 2018 (GMT -0700)
Phoenix Sky Harbor International

Weather History for KPHX - November, 2011

Change the Weather History Date:

Thursday, November 3, 2011

  Actual Average Record
Temperature  
Mean Temperature 69 °F 69 °F  
Max Temperature 84 °F 81 °F 96 °F (2009)
Min Temperature 53 °F 58 °F 36 °F (1956)
Degree Days  
Heating Degree Days 0 1  
Month to date heating degree days 0 3  
Since 1 July heating degree days 0 9  
Cooling Degree Days 4 5  
Month to date cooling degree days 20 17  
Year to date cooling degree days 4884 4553  
Growing Degree Days 18 (Base 50)    
Moisture  
Dew Point 21 °F    
Average Humidity 18    
Maximum Humidity 26    
Minimum Humidity 10    
Precipitation  
Precipitation 0.00 in 0.02 in 0.35 in (2016)
Month to date precipitation 0.00 0.06  
Year to date precipitation 2.75 6.56  
Snow  
Snow 0.00 in - - ()
Month to date snowfall 0.0  
Year to date snowfall 0.0  
Since 1 July snowfall 0.0  
Snow Depth 0.00 in    
Sea Level Pressure  
Sea Level Pressure 29.95 in    
Wind  
Wind Speed 4 mph (SSE)    
Max Wind Speed 13 mph    
Max Gust Speed 17 mph    
Visibility 10 miles    
Events      
T = Trace of Precipitation, MM = Missing Value Source: NWS Daily Summary

Daily Weather History Graph

Daily Weather History Graph

Search for Another Location

Airport or City:

Astronomy

Nov. 03, 2011 Rise Set
Actual Time 6:48 AM MST 5:34 PM MST
Civil Twilight 6:22 AM MST 6:00 PM MST
Nautical Twilight 5:53 AM MST 6:29 PM MST
Astronomical Twilight 5:24 AM MST 6:58 PM MST
Moon 1:42 PM MST (11/3) 12:23 AM MST (11/3)
Length of Visible Light 11h 37m
Length of Day
10h 46m
First Quarter, 61% of the Moon is Illuminated
Nov 3
First Quarter
Nov 10
Full
Nov 18
Last Quarter
Nov 24
New
Dec 2
First Quarter

Hourly Weather History & Observations

Time (MST) Temp. Dew Point Humidity Pressure Visibility Wind Dir Wind Speed Gust Speed Precip Events Conditions
12:51 AM 59.0 °F 14.0 °F 17% 30.06 in 10.0 mi SW 5.8 mph - N/A   Clear
1:51 AM 57.9 °F 15.1 °F 19% 30.05 in 10.0 mi West 3.5 mph - N/A   Clear
2:51 AM 55.0 °F 18.0 °F 23% 30.04 in 10.0 mi SW 4.6 mph - N/A   Clear
3:51 AM 55.0 °F 18.0 °F 23% 30.04 in 10.0 mi SW 3.5 mph - N/A   Clear
4:51 AM 55.0 °F 18.0 °F 23% 30.03 in 10.0 mi Calm Calm - N/A   Clear
5:51 AM 55.0 °F 21.9 °F 28% 30.04 in 10.0 mi Calm Calm - N/A   Clear
6:51 AM 53.1 °F 19.9 °F 27% 30.05 in 10.0 mi Calm Calm - N/A   Partly Cloudy
7:51 AM 57.0 °F 19.9 °F 24% 30.06 in 10.0 mi Calm Calm - N/A   Scattered Clouds
8:51 AM 63.0 °F 18.0 °F 18% 30.07 in 10.0 mi Calm Calm - N/A   Partly Cloudy
9:51 AM 71.1 °F 19.0 °F 14% 30.04 in 10.0 mi East 4.6 mph - N/A   Partly Cloudy
10:51 AM 75.0 °F 17.1 °F 11% 30.02 in 10.0 mi ESE 10.4 mph - N/A   Scattered Clouds
11:51 AM 78.1 °F 19.0 °F 11% 29.98 in 10.0 mi ESE 6.9 mph - N/A   Mostly Cloudy
12:51 PM 78.1 °F 18.0 °F 10% 29.94 in 10.0 mi SE 6.9 mph - N/A   Scattered Clouds
1:51 PM 82.9 °F 19.0 °F 9% 29.91 in 10.0 mi SSE 9.2 mph - N/A   Scattered Clouds
2:51 PM 82.0 °F 19.9 °F 10% 29.88 in 10.0 mi SE 5.8 mph - N/A   Scattered Clouds
3:51 PM 82.9 °F 19.9 °F 10% 29.85 in 10.0 mi Variable 4.6 mph - N/A   Scattered Clouds
4:51 PM 82.9 °F 21.9 °F 11% 29.84 in 10.0 mi South 3.5 mph - N/A   Scattered Clouds
5:51 PM 79.0 °F 21.0 °F 12% 29.84 in 10.0 mi WSW 4.6 mph - N/A   Scattered Clouds
6:51 PM 75.9 °F 21.9 °F 13% 29.85 in 10.0 mi Calm Calm - N/A   Mostly Cloudy
7:51 PM 73.0 °F 24.1 °F 16% 29.84 in 10.0 mi ESE 3.5 mph - N/A   Mostly Cloudy
8:51 PM 70.0 °F 28.9 °F 22% 29.84 in 10.0 mi East 4.6 mph - N/A   Scattered Clouds
9:51 PM 69.1 °F 28.0 °F 22% 29.84 in 10.0 mi Calm Calm - N/A   Scattered Clouds
10:51 PM 66.2 °F 30.2 °F 26% 29.85 in 10.0 mi East 6.9 mph - N/A   Mostly Cloudy
11:51 PM 66.0 °F 30.9 °F 27% 29.80 in 10.0 mi East 6.9 mph - N/A   Mostly Cloudy